Weather History for VTBU - October, 2012

Change the Weather History Date:

Monday, October 8, 2012

  Actual Average Record
Temperature  
Mean Temperature 78 °F -  
Max Temperature 82 °F 87 °F 95 °F (1999)
Min Temperature 75 °F 76 °F 73 °F (2013)
Cooling Degree Days 14    
Growing Degree Days 28 (Base 50)    
Moisture  
Dew Point 72 °F    
Average Humidity 85    
Maximum Humidity 94    
Minimum Humidity 78    
Precipitation  
Precipitation 0.00 in - - ()
Sea Level Pressure  
Sea Level Pressure 29.76 in    
Wind  
Wind Speed 4 mph ()    
Max Wind Speed 9 mph    
Max Gust Speed -    
Visibility 4.1 miles    
Events Rain    
Averages and records for this station are not official NWS values.
T = Trace of Precipitation, MM = Missing Value Source: Averaged Metar Reports

Daily Weather History Graph

Daily Weather History Graph

Search for Another Location

Airport or City:

Trip Planner

Search our weather history database for the weather conditions in past years. The results will help you decide how hot, cold, wet, or windy it might be!

Date:

Astronomy

Oct. 08, 2012 Rise Set
Actual Time 6:05 AM ICT 6:01 PM ICT
Civil Twilight 5:44 AM ICT 6:22 PM ICT
Nautical Twilight 5:19 AM ICT 6:47 PM ICT
Astronomical Twilight 4:54 AM ICT 7:11 PM ICT
Moon No Moon Rise 12:24 PM ICT (10/8)
Length of Visible Light 12h 38m
Length of Day
11h 55m
Waning Gibbous, 51% of the Moon is Illuminated
Oct 8
Waning Gibbous
Oct 8
Last Quarter
Oct 15
New
Oct 22
First Quarter
Oct 30
Full

Hourly Weather History & Observations

Time (ICT) Temp. Heat Index Dew Point Humidity Pressure Visibility Wind Dir Wind Speed Gust Speed Precip Events Conditions
12:00 AM 75.2 °F - 71.6 °F 89% 29.80 in 3.7 mi NNE 6.9 mph - N/A Rain Light Rain
12:30 AM 75.2 °F - 69.8 °F 83% 29.77 in 3.7 mi NNE 5.8 mph - N/A Rain Light Rain
1:00 AM 75.2 °F - 69.8 °F 83% 29.77 in 3.7 mi NNE 4.6 mph - N/A   Mostly Cloudy
1:30 AM 75.2 °F - 69.8 °F 83% 29.77 in 3.7 mi NNE 3.5 mph - N/A   Mostly Cloudy
2:00 AM 75.2 °F - 69.8 °F 83% 29.74 in 3.7 mi North 4.6 mph - N/A   Mostly Cloudy
2:30 AM 75.2 °F - 69.8 °F 83% 29.74 in 3.7 mi North 5.8 mph - N/A Rain Light Rain
3:00 AM 75.2 °F - 69.8 °F 83% 29.74 in 3.7 mi NNE 4.6 mph - N/A Rain Light Rain
3:30 AM 75.2 °F - 69.8 °F 83% 29.74 in 3.7 mi North 4.6 mph - N/A Rain Light Rain
4:30 AM 75.2 °F - 69.8 °F 83% 29.74 in 3.7 mi North 4.6 mph - N/A Rain Light Rain
5:00 AM 75.2 °F - 71.6 °F 89% 29.74 in 3.7 mi NNE 4.6 mph - N/A Rain Light Rain
5:30 AM 75.2 °F - 71.6 °F 89% 29.74 in 3.7 mi North 5.8 mph - N/A Rain Light Rain
6:00 AM 75.2 °F - 71.6 °F 89% 29.74 in 3.7 mi NNE 4.6 mph - N/A Rain Light Rain
6:30 AM 75.2 °F - 71.6 °F 89% 29.74 in 3.1 mi NNE 4.6 mph - N/A Rain Light Rain
7:00 AM 75.2 °F - 71.6 °F 89% 29.77 in 2.5 mi NE 4.6 mph - N/A Rain Light Rain
7:30 AM 77.0 °F - 71.6 °F 83% 29.77 in 1.9 mi NNE 4.6 mph - N/A Rain Light Rain
8:00 AM 77.0 °F - 71.6 °F 83% 29.77 in 1.9 mi NE 5.8 mph - N/A   Mostly Cloudy
8:30 AM 77.0 °F - 71.6 °F 83% 29.77 in 1.9 mi ENE 4.6 mph - N/A   Mostly Cloudy
9:00 AM 77.0 °F - 71.6 °F 83% 29.80 in 1.9 mi NE 5.8 mph - N/A   Mostly Cloudy
9:30 AM 77.0 °F - 71.6 °F 83% 29.80 in 2.5 mi North 9.2 mph - N/A   Mostly Cloudy
10:00 AM 77.0 °F - 73.4 °F 89% 29.80 in 3.7 mi ENE 6.9 mph - N/A   Mostly Cloudy
10:30 AM 78.8 °F - 73.4 °F 83% 29.80 in 5.0 mi ESE 5.8 mph - N/A   Mostly Cloudy
11:00 AM 78.8 °F - 73.4 °F 83% 29.80 in 5.6 mi South 6.9 mph - N/A   Mostly Cloudy
11:30 AM 78.8 °F - 73.4 °F 83% 29.77 in 5.6 mi South 4.6 mph - N/A   Mostly Cloudy
12:00 PM 78.8 °F - 73.4 °F 83% 29.77 in 5.6 mi South 9.2 mph - N/A   Mostly Cloudy
12:30 PM 82.4 °F 89.5 °F 75.2 °F 79% 29.77 in 5.6 mi South 6.9 mph - N/A   Mostly Cloudy
1:00 PM 82.4 °F 89.5 °F 75.2 °F 79% 29.74 in 3.7 mi South 9.2 mph - N/A Rain Light Rain Showers
1:30 PM 78.8 °F - 77.0 °F 94% 29.74 in 1.9 mi SSE 3.5 mph - N/A Rain Light Rain Showers
2:00 PM 78.8 °F - 77.0 °F 94% 29.71 in 2.5 mi SSE 4.6 mph - N/A Rain Light Rain Showers
2:30 PM 78.8 °F - 77.0 °F 94% 29.71 in 3.7 mi SSE 3.5 mph - N/A Rain Light Rain
3:00 PM 78.8 °F - 77.0 °F 94% 29.68 in 5.0 mi SW 6.9 mph - N/A   Mostly Cloudy
3:30 PM 78.8 °F - 71.6 °F 78% 29.71 in 4.3 mi WNW 3.5 mph - N/A Rain Light Rain Showers
4:00 PM 78.8 °F - 71.6 °F 78% 29.71 in 4.3 mi WNW 3.5 mph - N/A Rain Light Rain
4:30 PM 78.8 °F - 71.6 °F 78% 29.71 in 4.3 mi West 3.5 mph - N/A Rain Light Rain
5:00 PM 78.8 °F - 73.4 °F 83% 29.71 in 5.0 mi West 4.6 mph - N/A   Mostly Cloudy
5:30 PM 78.8 °F - 73.4 °F 83% 29.71 in 5.0 mi West 4.6 mph - N/A   Mostly Cloudy
6:00 PM 78.8 °F - 73.4 °F 83% 29.71 in 5.0 mi West 3.5 mph - N/A   Mostly Cloudy
6:30 PM 78.8 °F - 73.4 °F 83% 29.74 in 5.0 mi SSW 3.5 mph - N/A   Mostly Cloudy
7:00 PM 77.0 °F - 73.4 °F 89% 29.74 in 5.0 mi Calm Calm - N/A   Mostly Cloudy
7:30 PM 77.0 °F - 71.6 °F 83% 29.77 in 5.0 mi Calm Calm - N/A   Mostly Cloudy
8:00 PM 78.8 °F - 71.6 °F 78% 29.77 in 5.0 mi Calm Calm - N/A   Mostly Cloudy
8:30 PM 77.0 °F - 71.6 °F 83% 29.80 in 5.0 mi Calm Calm - N/A   Mostly Cloudy
9:00 PM 77.0 °F - 73.4 °F 89% 29.80 in 5.0 mi Calm Calm - N/A   Mostly Cloudy
9:30 PM 77.0 °F - 71.6 °F 83% 29.80 in 5.0 mi Calm Calm - N/A   Mostly Cloudy
10:00 PM 77.0 °F - 71.6 °F 83% 29.83 in 5.0 mi Calm Calm - N/A   Mostly Cloudy
10:30 PM 77.0 °F - 71.6 °F 83% 29.83 in 5.0 mi Calm Calm - N/A   Mostly Cloudy
11:00 PM 77.0 °F - 73.4 °F 89% 29.80 in 5.0 mi Calm Calm - N/A   Mostly Cloudy
11:30 PM 77.0 °F - 73.4 °F 89% 29.80 in 5.0 mi Calm Calm - N/A   Mostly Cloudy